Daytona Beach, FL

7:21 PM EDT on April 26, 2018 (GMT -0400)
Daytona Beach International

Weather History for KDAB - March, 2013

Change the Weather History Date:

Friday, March 22, 2013

  Actual Average Record
Temperature  
Mean Temperature 58 °F 65 °F  
Max Temperature 71 °F 75 °F 89 °F (1935)
Min Temperature 44 °F 55 °F 34 °F (1960)
Degree Days  
Heating Degree Days 7 2  
Month to date heating degree days 169 78  
Since 1 July heating degree days 635 760  
Cooling Degree Days 0 3  
Month to date cooling degree days 14 51  
Year to date cooling degree days 147 116  
Growing Degree Days 8 (Base 50)    
Moisture  
Dew Point 44 °F    
Average Humidity 61    
Maximum Humidity 84    
Minimum Humidity 37    
Precipitation  
Precipitation 0.00 in 0.14 in 4.98 in (1953)
Month to date precipitation 0.64 3.02  
Year to date precipitation 2.52 8.54  
Sea Level Pressure  
Sea Level Pressure 29.99 in    
Wind  
Wind Speed 5 mph (ENE)    
Max Wind Speed 15 mph    
Max Gust Speed 21 mph    
Visibility 10 miles    
Events      
T = Trace of Precipitation, MM = Missing Value Source: NWS Daily Summary

Daily Weather History Graph

Daily Weather History Graph

Search for Another Location

Airport or City:

Astronomy

Mar. 22, 2013 Rise Set
Actual Time 7:25 AM EDT 7:36 PM EDT
Civil Twilight 7:01 AM EDT 8:00 PM EDT
Nautical Twilight 6:34 AM EDT 8:28 PM EDT
Astronomical Twilight 6:06 AM EDT 8:56 PM EDT
Moon 3:21 PM EDT (3/22) 4:05 AM EDT (3/22)
Length of Visible Light 12h 58m
Length of Day
12h 11m
Waxing Gibbous, 77% of the Moon is Illuminated
Mar 22
Waxing Gibbous
Mar 27
Full
Apr 3
Last Quarter
Apr 10
New
Apr 18
First Quarter

Hourly Weather History & Observations

Time (EDT) Temp. Dew Point Humidity Pressure Visibility Wind Dir Wind Speed Gust Speed Precip Events Conditions
12:53 AM 46.9 °F 39.9 °F 77% 29.97 in 10.0 mi Calm Calm - N/A   Partly Cloudy
1:53 AM 45.0 °F 39.9 °F 82% 29.96 in 10.0 mi Calm Calm - N/A   Clear
2:53 AM 46.9 °F 39.9 °F 77% 29.95 in 10.0 mi Calm Calm - N/A   Partly Cloudy
3:53 AM 46.9 °F 41.0 °F 80% 29.94 in 10.0 mi Calm Calm - N/A   Partly Cloudy
4:53 AM 50.0 °F 39.0 °F 66% 29.94 in 10.0 mi Calm Calm - N/A   Partly Cloudy
5:53 AM 48.0 °F 37.9 °F 68% 29.96 in 10.0 mi Calm Calm - N/A   Partly Cloudy
6:53 AM 48.0 °F 39.9 °F 74% 30.00 in 10.0 mi NNW 4.6 mph - N/A   Mostly Cloudy
7:53 AM 48.0 °F 42.1 °F 80% 30.02 in 10.0 mi Calm Calm - N/A   Mostly Cloudy
8:53 AM 55.0 °F 44.1 °F 67% 30.03 in 10.0 mi Calm Calm - N/A   Mostly Cloudy
9:53 AM 64.0 °F 41.0 °F 43% 30.04 in 10.0 mi NE 11.5 mph - N/A   Scattered Clouds
10:53 AM 66.9 °F 41.0 °F 39% 30.04 in 10.0 mi ESE 8.1 mph - N/A   Scattered Clouds
11:53 AM 68.0 °F 41.0 °F 37% 30.05 in 10.0 mi ENE 8.1 mph - N/A   Scattered Clouds
12:53 PM 69.1 °F 42.1 °F 38% 30.04 in 10.0 mi East 9.2 mph 20.7 mph N/A   Scattered Clouds
1:53 PM 70.0 °F 43.0 °F 38% 30.01 in 10.0 mi NE 9.2 mph - N/A   Scattered Clouds
2:53 PM 70.0 °F 44.1 °F 39% 30.00 in 10.0 mi NE 13.8 mph 17.3 mph N/A   Scattered Clouds
3:53 PM 70.0 °F 45.0 °F 41% 29.97 in 10.0 mi NNE 8.1 mph - N/A   Scattered Clouds
4:53 PM 70.0 °F 46.9 °F 44% 29.97 in 10.0 mi NE 11.5 mph - N/A   Scattered Clouds
5:53 PM 69.1 °F 46.0 °F 44% 29.97 in 10.0 mi NE 12.7 mph - N/A   Scattered Clouds
6:53 PM 66.9 °F 48.0 °F 51% 29.98 in 10.0 mi East 6.9 mph - N/A   Scattered Clouds
7:53 PM 64.9 °F 48.9 °F 56% 29.98 in 10.0 mi East 3.5 mph - N/A   Scattered Clouds
8:53 PM 64.9 °F 51.1 °F 61% 30.01 in 10.0 mi NE 3.5 mph - N/A   Mostly Cloudy
9:53 PM 64.0 °F 52.0 °F 65% 30.01 in 10.0 mi Calm Calm - N/A   Scattered Clouds
10:53 PM 61.0 °F 54.0 °F 78% 30.01 in 10.0 mi Calm Calm - N/A   Partly Cloudy
11:53 PM 61.0 °F 55.0 °F 81% 30.01 in 10.0 mi South 3.5 mph - N/A   Mostly Cloudy